Weather History for Taunton, MA

Change the Weather History Date:

Monday, July 22, 2013

  Actual Average Record
Temperature  
Mean Temperature 74 °F -  
Max Temperature 84 °F 83 °F 100 °F (1991)
Min Temperature 64 °F 60 °F 45 °F (1950)
Cooling Degree Days 9    
Growing Degree Days 24 (Base 50)    
Moisture  
Dew Point 67 °F    
Average Humidity 83    
Maximum Humidity 97    
Minimum Humidity 51    
Precipitation  
Precipitation 0.00 in - - ()
Sea Level Pressure  
Sea Level Pressure 29.94 in    
Wind  
Wind Speed 2 mph (East)    
Max Wind Speed 8 mph    
Max Gust Speed -    
Visibility 7 miles    
Events      
Averages and records for this station are not official NWS values.
T = Trace of Precipitation, MM = Missing Value Source: NWS Daily Summary

Daily Weather History Graph

Daily Weather History Graph

Search for Another Location

Airport:

Trip Planner

Search our weather history database for the weather conditions in past years. The results will help you decide how hot, cold, wet, or windy it might be!

Date:

Astronomy

Jul. 22, 2013 Rise Set
Actual Time 5:28 AM EDT 8:12 PM EDT
Civil Twilight 4:55 AM EDT 8:44 PM EDT
Nautical Twilight 4:15 AM EDT 9:25 PM EDT
Astronomical Twilight 3:28 AM EDT 10:11 PM EDT
Moon 7:54 PM EDT (7/22) 5:22 AM EDT (7/22)
Length of Visible Light 15h 48m
Length of Day
14h 43m
Full, 100% of the Moon is Illuminated
Jul 22
Full
Jul 22
Full
Jul 29
Last Quarter
Aug 6
New
Aug 14
First Quarter

Hourly Weather History & Observations

Time (EDT) Temp. Heat Index Dew Point Humidity Pressure Visibility Wind Dir Wind Speed Gust Speed Precip Events Conditions
12:52 AM 66.0 °F - 64.0 °F 93% 29.99 in 6.0 mi South 3.5 mph - N/A   Clear
1:16 AM 66.0 °F - 64.9 °F 96% 29.98 in 2.5 mi Calm Calm - N/A   Clear
1:27 AM 66.0 °F - 64.0 °F 93% 29.98 in 1.2 mi Calm Calm - N/A   Clear
1:34 AM 66.0 °F - 64.9 °F 96% 29.97 in 2.0 mi Calm Calm - N/A   Clear
1:42 AM 66.0 °F - 64.9 °F 96% 29.97 in 4.0 mi Calm Calm - N/A   Clear
1:52 AM 66.9 °F - 64.9 °F 93% 29.97 in 6.0 mi Calm Calm - N/A   Clear
2:52 AM 66.9 °F - 66.0 °F 97% 29.98 in 5.0 mi Calm Calm - N/A   Clear
3:52 AM 66.0 °F - 64.9 °F 96% 29.98 in 4.0 mi Calm Calm - N/A   Clear
4:18 AM 66.0 °F - 64.0 °F 93% 29.97 in 1.8 mi Calm Calm - N/A   Clear
4:28 AM 66.0 °F - 64.0 °F 93% 29.97 in 1.2 mi Calm Calm - N/A   Partly Cloudy
4:39 AM 66.0 °F - 64.0 °F 93% 29.97 in 2.0 mi Calm Calm - N/A   Partly Cloudy
4:47 AM 66.2 °F - 64.4 °F 94% 29.97 in 4.0 mi Calm Calm - N/A   Partly Cloudy
4:52 AM 66.0 °F - 64.0 °F 93% 29.97 in 4.0 mi Calm Calm - N/A   Partly Cloudy
5:45 AM 64.9 °F - 64.0 °F 97% 29.97 in 1.8 mi Calm Calm - N/A   Clear
5:52 AM 66.0 °F - 64.0 °F 93% 29.97 in 2.0 mi NNW 3.5 mph - N/A   Partly Cloudy
6:00 AM 66.9 °F - 64.9 °F 93% 29.98 in 3.0 mi Calm Calm - N/A   Mostly Cloudy
6:39 AM 69.1 °F - 66.9 °F 93% 29.98 in 4.0 mi Calm Calm - N/A   Mostly Cloudy
6:52 AM 69.1 °F - 66.9 °F 93% 29.98 in 5.0 mi Calm Calm - N/A   Mostly Cloudy
7:12 AM 71.1 °F - 68.0 °F 90% 29.98 in 6.0 mi Calm Calm - N/A   Partly Cloudy
7:52 AM 73.0 °F - 69.1 °F 87% 29.99 in 9.0 mi Calm Calm - N/A   Clear
8:52 AM 75.9 °F - 69.1 °F 79% 29.99 in 10.0 mi Variable 3.5 mph - N/A   Clear
9:52 AM 79.0 °F - 66.9 °F 66% 29.99 in 10.0 mi Calm Calm - N/A   Clear
10:52 AM 81.0 °F 83.3 °F 66.9 °F 62% 29.99 in 10.0 mi SE 3.5 mph - N/A   Clear
11:52 AM 82.9 °F 85.0 °F 66.0 °F 56% 29.98 in 10.0 mi East 5.8 mph - N/A   Clear
12:52 PM 84.0 °F 85.4 °F 64.0 °F 51% 29.96 in 10.0 mi SE 8.1 mph - N/A   Clear
1:52 PM 84.9 °F 86.6 °F 64.9 °F 51% 29.95 in 10.0 mi Variable 5.8 mph - N/A   Clear
2:52 PM 82.9 °F 85.4 °F 66.9 °F 58% 29.93 in 10.0 mi ESE 4.6 mph - N/A   Scattered Clouds
3:52 PM 82.9 °F 86.5 °F 69.1 °F 63% 29.92 in 10.0 mi SE 6.9 mph - N/A   Partly Cloudy
4:52 PM 80.1 °F 82.7 °F 68.0 °F 67% 29.92 in 10.0 mi SE 8.1 mph - N/A   Mostly Cloudy
5:52 PM 79.0 °F - 69.1 °F 72% 29.91 in 10.0 mi SE 5.8 mph - N/A   Overcast
6:12 PM 79.0 °F - 68.0 °F 69% 29.91 in 10.0 mi ESE 5.8 mph - N/A   Overcast
6:52 PM 75.9 °F - 68.0 °F 76% 29.91 in 10.0 mi ENE 5.8 mph - N/A   Mostly Cloudy
7:20 PM 75.0 °F - 68.0 °F 79% 29.91 in 10.0 mi ENE 4.6 mph - N/A   Mostly Cloudy
7:50 PM 75.2 °F - 68.0 °F 78% 29.90 in 10.0 mi Variable 3.5 mph - N/A   Scattered Clouds
7:52 PM 75.0 °F - 68.0 °F 79% 29.90 in 10.0 mi ENE 3.5 mph - N/A   Scattered Clouds
8:17 PM 73.9 °F - 68.0 °F 82% 29.90 in 10.0 mi East 6.9 mph - N/A   Mostly Cloudy
8:52 PM 73.9 °F - 69.1 °F 85% 29.90 in 10.0 mi East 4.6 mph - N/A   Overcast
9:10 PM 73.0 °F - 69.1 °F 87% 29.90 in 10.0 mi East 5.8 mph - N/A   Overcast
9:44 PM 73.0 °F - 69.1 °F 87% 29.90 in 9.0 mi East 3.5 mph - N/A   Overcast
9:52 PM 73.0 °F - 69.1 °F 87% 29.90 in 9.0 mi East 4.6 mph - N/A   Overcast
10:03 PM 73.0 °F - 69.1 °F 87% 29.90 in 9.0 mi East 4.6 mph - N/A   Overcast
10:38 PM 73.0 °F - 69.1 °F 87% 29.89 in 9.0 mi ESE 4.6 mph - N/A   Overcast
10:52 PM 73.0 °F - 69.1 °F 87% 29.88 in 9.0 mi East 5.8 mph - N/A   Overcast
11:43 PM 72.0 °F - 69.1 °F 91% 29.88 in 7.0 mi East 4.6 mph - N/A   Overcast
11:52 PM 72.0 °F - 69.1 °F 91% 29.88 in 7.0 mi East 4.6 mph - N/A   Overcast